| time (UTC) | temp F | wind direction | speed knots | gust knots | rain 1hr in | rain 24hr in | rain mn in | humidity % | barometer mb |
| 20260505011552 | 53 | 250 | 7.8 | 15.6 | 0.00 | 0.07 | 0.05 | 66 | 1008.1 |
| 20260505010057 | 53 | 237 | 7.0 | 13.0 | 0.00 | 0.07 | 0.05 | 66 | 1007.9 |
| 20260505004602 | 53 | 231 | 8.7 | 16.5 | 0.00 | 0.18 | 0.05 | 65 | 1007.5 |
| 20260505003057 | 53 | 236 | 7.0 | 14.8 | 0.00 | 0.18 | 0.05 | 65 | 1007.5 |
| 20260505001555 | 53 | 213 | 8.7 | 13.9 | 0.00 | 0.18 | 0.05 | 64 | 1007.3 |
| 20260505000107 | 54 | 225 | 6.1 | 14.8 | 0.00 | 0.18 | 0.05 | 64 | 1006.9 |
| 20260504234550 | 54 | 258 | 10.4 | 15.6 | 0.00 | 0.24 | 0.05 | 62 | 1006.7 |
| 20260504233100 | 55 | 248 | 8.7 | 15.6 | 0.00 | 0.24 | 0.05 | 61 | 1006.4 |
| 20260504231558 | 55 | 254 | 6.1 | 14.8 | 0.00 | 0.24 | 0.05 | 60 | 1006.4 |
| 20260504230105 | 56 | 221 | 5.2 | 17.4 | 0.00 | 0.24 | 0.05 | 58 | 1006.2 |
| 20260504224552 | 56 | 238 | 6.1 | 16.5 | 0.00 | 0.33 | 0.05 | 57 | 1005.9 |
| 20260504223051 | 56 | 202 | 7.0 | 21.7 | 0.00 | 0.33 | 0.05 | 56 | 1005.9 |
| 20260504221603 | 58 | 227 | 13.0 | 21.7 | 0.00 | 0.33 | 0.05 | 52 | 1005.9 |
| 20260504220103 | 58 | 226 | 10.4 | 20.9 | 0.00 | 0.33 | 0.05 | 52 | 1005.6 |
| 20260504214556 | 58 | 281 | 13.9 | 24.3 | 0.00 | 0.44 | 0.05 | 50 | 1005.9 |
| 20260504213050 | 58 | 261 | 14.8 | 23.5 | 0.00 | 0.44 | 0.05 | 49 | 1006.0 |
| 20260504211550 | 59 | 212 | 13.0 | 23.5 | 0.00 | 0.44 | 0.05 | 50 | 1005.8 |
| 20260504210054 | 60 | 242 | 13.9 | 27.8 | 0.00 | 0.44 | 0.05 | 49 | 1005.6 |
| 20260504204600 | 61 | 223 | 15.6 | 33.9 | 0.00 | 0.60 | 0.05 | 48 | 1005.6 |
| 20260504203101 | 61 | 226 | 17.4 | 31.3 | 0.00 | 0.60 | 0.05 | 49 | 1005.2 |
| 20260504201552 | 61 | 240 | 14.8 | 29.5 | 0.00 | 0.60 | 0.05 | 51 | 1005.0 |
| 20260504200054 | 61 | 273 | 18.2 | 35.6 | 0.00 | 0.60 | 0.05 | 52 | 1004.8 |
| 20260504194553 | 61 | 218 | 11.3 | 24.3 | 0.00 | 0.96 | 0.05 | 51 | 1004.7 |
| 20260504193056 | 61 | 247 | 14.8 | 26.9 | 0.00 | 0.96 | 0.05 | 48 | 1004.6 |
| 20260504191606 | 61 | 250 | 13.9 | 23.5 | 0.00 | 0.96 | 0.05 | 45 | 1004.7 |
| 20260504190112 | 61 | 228 | 13.9 | 26.9 | 0.00 | 0.96 | 0.05 | 44 | 1004.8 |
| 20260504184557 | 60 | 233 | 15.6 | 24.3 | 0.00 | 1.27 | 0.05 | 43 | 1004.4 |
| 20260504183107 | 60 | 216 | 12.2 | 25.2 | 0.00 | 1.27 | 0.05 | 43 | 1004.5 |
| 20260504181600 | 60 | 205 | 11.3 | 23.5 | 0.00 | 1.27 | 0.05 | 39 | 1004.7 |
| 20260504180051 | 60 | 244 | 16.5 | 28.7 | 0.00 | 1.27 | 0.05 | 37 | 1004.6 |
| 20260504174554 | 60 | 213 | 17.4 | 28.7 | 0.00 | 1.55 | 0.05 | 39 | 1004.7 |
| 20260504173050 | 59 | 251 | 16.5 | 33.9 | 0.00 | 1.55 | 0.05 | 42 | 1004.5 |
| 20260504171553 | 60 | 225 | 13.9 | 30.4 | 0.00 | 1.55 | 0.05 | 39 | 1004.6 |
| 20260504081551 | 42 | 275 | 11.3 | 19.1 | 0.00 | 2.02 | 0.05 | 87 | 999.1 |
| 20260504050106 | 38 | 244 | 14.8 | 22.6 | 0.02 | 2.00 | 0.03 | 88 | 996.3 |
| 20260504044600 | 37 | 259 | 11.3 | 20.9 | 0.03 | 2.00 | 0.03 | 89 | 995.9 |
| 20260504043055 | 37 | 279 | 12.2 | 23.5 | 0.02 | 1.99 | 0.02 | 88 | 995.9 |
| 20260504041601 | 37 | 250 | 13.0 | 22.6 | 0.01 | 1.98 | 0.01 | 88 | 995.4 |
| 20260504040057 | 37 | 263 | 13.0 | 26.9 | 0.00 | 1.97 | 0.00 | 88 | 995.3 |
| 20260504034553 | 38 | 265 | 13.9 | 30.4 | 0.00 | 1.96 | 0.00 | 88 | 994.7 |
| 20260504033102 | 37 | 242 | 15.6 | 26.9 | 0.00 | 1.96 | 0.00 | 88 | 994.3 |
| 20260504031553 | 37 | 249 | 12.2 | 25.2 | 0.01 | 1.96 | 0.00 | 88 | 994.2 |
| 20260504030056 | 37 | 288 | 11.3 | 24.3 | 0.01 | 1.96 | 0.00 | 88 | 993.6 |
| 20260504024616 | 37 | 290 | 13.9 | 23.5 | 0.00 | 1.96 | 1.96 | 88 | 993.3 |
| 20260504023053 | 37 | 278 | 12.2 | 25.2 | 0.00 | 1.96 | 1.96 | 88 | 993.0 |
| 20260504021554 | 37 | 246 | 13.0 | 24.3 | 0.00 | 1.95 | 1.95 | 88 | 992.4 |
| 20260504020057 | 36 | 261 | 12.2 | 26.1 | 0.00 | 1.95 | 1.95 | 88 | 991.9 |
| 20260504014604 | 36 | 275 | 10.4 | 24.3 | 0.02 | 1.95 | 1.95 | 88 | 991.7 |
| 20260504013056 | 36 | 259 | 13.0 | 22.6 | 0.05 | 1.95 | 1.95 | 89 | 991.1 |